パンスターズ彗星

C/2020 K1 ( PanSTARRS )

English version
Home page
Updated on September 11, 2022

---------------------------------------------------------------------

・ プロフィール

発見日 2020年5月17日
発見光度 20.6等
発見者 Pan-STARRS2 1.8-m Ritchey-Chretien reflector at Haleakala

・ 写真集

・ 軌道要素

Epoch 2022 Aug. 9.0 TT = JDT 2459800.5
T 2023 May  9.06749 TT                                  Rudenko
q   3.0733830            (2000.0)            P               Q
z  +0.0000175      Peri.  213.97983     +0.06623996     -0.03760150
 +/-0.0000006      Node    94.35546     -0.53606820     +0.84148406
e   0.9999463      Incl.   89.66436     -0.84157183     -0.53897190
From 2585 observations 2020 Apr. 17-2022 Sept. 8, mean residual 0".4.

・ 星図

・ 光度変化

        m1 = 4.0 + 5 logΔ + 11.0 log r

---------------------------------------------------------------------

軌道要素はM.P.E.C. 2022-R139に掲載されたものです。
星図はステラナビゲータ Ver.10 (アストロアーツ) で作成したものです。
光度グラフはComet for Windowsで作成したものです。

---------------------------------------------------------------------

Copyright(C) Seiichi Yoshida (comet@aerith.net). All rights reserved.